TimeEST,TemperatureF,Dew PointF,Humidity,Sea Level PressureIn,VisibilityMPH,Wind Direction,Wind SpeedMPH,Gust SpeedMPH,PrecipitationIn,Events,Conditions,WindDirDegrees,DateUTC
12:53 AM,46.9,43.0,86,30.22,7.0,Calm,Calm,-,N/A,,Clear,0,2013-01-01 05:53:00
1:53 AM,48.0,45.0,89,30.20,6.0,Calm,Calm,-,N/A,,Clear,0,2013-01-01 06:53:00
2:53 AM,48.9,46.0,90,30.20,5.0,Calm,Calm,-,N/A,,Mostly Cloudy,0,2013-01-01 07:53:00
3:53 AM,51.1,46.9,86,30.19,4.0,South,5.8,-,N/A,,Overcast,170,2013-01-01 08:53:00
4:53 AM,52.0,48.9,89,30.17,7.0,South,3.5,-,N/A,,Overcast,170,2013-01-01 09:53:00
5:53 AM,52.0,48.0,86,30.14,8.0,South,5.8,-,0.01,,Scattered Clouds,180,2013-01-01 10:53:00
6:53 AM,48.0,45.0,89,30.14,5.0,South,5.8,-,N/A,,Clear,180,2013-01-01 11:53:00
8:53 AM,57.0,51.1,81,30.16,10.0,South,5.8,-,N/A,,Overcast,180,2013-01-01 13:53:00
9:53 AM,60.1,52.0,75,30.17,10.0,South,6.9,-,N/A,,Overcast,190,2013-01-01 14:53:00
10:53 AM,66.0,54.0,65,30.17,10.0,South,9.2,-,N/A,,Overcast,180,2013-01-01 15:53:00
11:53 AM,70.0,55.0,59,30.15,10.0,South,6.9,-,N/A,,Overcast,190,2013-01-01 16:53:00
12:53 PM,73.0,55.9,55,30.11,10.0,SSW,11.5,18.4,N/A,,Overcast,200,2013-01-01 17:53:00
1:53 PM,75.9,55.9,50,30.07,10.0,SSW,12.7,21.9,0.01,,Mostly Cloudy,200,2013-01-01 18:53:00
2:53 PM,75.0,55.9,51,30.06,10.0,SSW,6.9,19.6,N/A,,Overcast,210,2013-01-01 19:53:00
3:53 PM,73.9,55.9,53,30.06,10.0,SSW,8.1,-,N/A,,Overcast,210,2013-01-01 20:53:00
5:53 PM,70.0,55.9,61,30.04,10.0,SSW,4.6,-,N/A,,Mostly Cloudy,200,2013-01-01 22:53:00
6:53 PM,66.0,55.9,70,30.05,10.0,Calm,Calm,-,N/A,,Mostly Cloudy,0,2013-01-01 23:53:00
7:53 PM,66.0,55.9,70,30.05,10.0,SSW,6.9,-,0.01,,Scattered Clouds,210,2013-01-02 00:53:00
8:53 PM,66.0,55.9,70,30.04,10.0,South,6.9,-,N/A,,Overcast,190,2013-01-02 01:53:00
9:53 PM,64.9,55.9,73,30.04,10.0,South,3.5,-,N/A,,Overcast,190,2013-01-02 02:53:00
10:53 PM,64.0,57.0,78,30.04,10.0,Variable,3.5,-,N/A,,Overcast,0,2013-01-02 03:53:00
11:53 PM,60.1,55.0,83,30.03,10.0,South,4.6,-,0.01,,Clear,190,2013-01-02 04:53:00